Overview Statistics Trail Chart Weather Telemetry Raw packets
 

This is the latest recevied weather packets stored in our database for station/object 4S6DRJ-13. If no packets are shown the sender has not sent any weather packets the latest 10 day(s).

<< 545 546 547 548 549 550 551 >>
Time Temp. Humidity Pressure Rain* Wind** Luminosity Snow
1787609836 25.56° C 92% 1009.3 hPa 0.76 mm 1.34 m/s, 166° 0 W/m² -
1787609776 25.56° C 92% 1009.2 hPa 0.76 mm 1.34 m/s, 170° 0 W/m² -
1787609715 25.56° C 92% 1009.4 hPa 0.76 mm 0.45 m/s, 143° 0 W/m² -
1787609653 25.56° C 92% 1009.3 hPa 0.76 mm 1.34 m/s, 158° 0 W/m² -
1787609594 25.56° C 92% 1009.3 hPa 0.76 mm 0.45 m/s, 135° 0 W/m² -
1787609531 25.56° C 92% 1009.4 hPa 0.76 mm 0.89 m/s, 163° 0 W/m² -
1787609472 25.56° C 92% 1009.2 hPa 0.76 mm 0.89 m/s, 139° 0 W/m² -
1787609410 25.56° C 92% 1009.5 hPa 0.76 mm 1.34 m/s, 173° 0 W/m² -
1787609349 25.56° C 92% 1009.4 hPa 0.76 mm 1.34 m/s, 183° 0 W/m² -
1787609288 25.56° C 92% 1009.4 hPa 0.76 mm 0.89 m/s, 176° 0 W/m² -
1787609227 25.56° C 92% 1009.4 hPa 0.76 mm 1.34 m/s, 175° 0 W/m² -
1787609166 25.56° C 92% 1009.5 hPa 0.76 mm 1.79 m/s, 142° 0 W/m² -
1787609104 25.56° C 92% 1009.3 hPa 0.76 mm 1.34 m/s, 148° 0 W/m² -
1787609043 25.56° C 92% 1009.4 hPa 0.76 mm 1.34 m/s, 183° 0 W/m² -
1787608982 25.56° C 92% 1009.3 hPa 0.76 mm 1.79 m/s, 169° 0 W/m² -
1787608921 25.56° C 92% 1009.4 hPa 0.76 mm 0.89 m/s, 137° 0 W/m² -
1787608860 25.56° C 92% 1009.7 hPa 0.76 mm 0.89 m/s, 136° 0 W/m² -
1787608800 25.56° C 92% 1009.5 hPa 0.76 mm 2.24 m/s, 178° 0 W/m² -
1787608740 25.56° C 92% 1009.4 hPa 0.76 mm 1.79 m/s, 213° 0 W/m² -
1787608678 25.56° C 92% 1009.4 hPa 0.76 mm 1.34 m/s, 177° 0 W/m² -
1787608616 25.56° C 92% 1009.5 hPa 0.76 mm 0.45 m/s, 207° 0 W/m² -
1787608555 25.56° C 92% 1009.4 hPa 0.76 mm 2.68 m/s, 197° 0 W/m² -
1787608495 25.56° C 92% 1009.5 hPa 0.76 mm 1.34 m/s, 216° 0 W/m² -
1787608435 25.56° C 92% 1009.6 hPa 0.76 mm 0.89 m/s, 185° 0 W/m² -
1787608373 25.56° C 92% 1009.5 hPa 0.76 mm 0.89 m/s, 181° 0 W/m² -

* Rain latest hour (hover to see other rain measurements)
** Current wind speed in m/s (hover to see current wind gust speed)